Weather in Nikolo-Skopin

Russia / Ryazan Oblast     53°55′26″N   39°40′33″E
В апреле 2022 года жителям России запретили посещать сайт meteo.paraplan.net по решению Генеральной прокуратуры. Аудитория сайта уменьшилась в 10 раз. Владельцы сайта не видят смысла в поддержке погодного сервера в таких условиях. Сайт будет закрыт в октябре.
temp.,
°C
wind,
m/s
gust,
m/s
humid.,
%
clouds,
%
prec.,
mm/h
press.,
hPa
HPBL,
m
30 september, fri
fri3000:00+10s229197 0.0 101516
03:00+9s339297 0.0 101642
06:00+9s3594100 0.0 101783
09:00+13s4986100 0.0 1017312
12:00+16s6873100 0.0 1017700
15:00+16s5982100 0.3 1017597
18:00+14s5119664 2.6 1018437
21:00+14sse399697 2.6 1018310
1 october, sat
sat100:00+12sse389786 0.1 1017237
03:00+12s249899 0.5 1017129
06:00+12s2398100 0.9 101753
09:00+14s3792100 4.9 1016327
12:00+15s4794100 0.9 1015414
15:00+15ssw3794100 0.9 1014359
18:00+15s3793100 0.1 1012132
21:00+14s4994100 0.3 1010180
2 october, sun
sun200:00+14sw5119398 0.4 1010440
03:00+13wsw5118899 0.4 1010583
06:00+10wsw41092100 0.0 1011442
09:00+12wsw6117765 0.0 1011633
12:00+14sw5766100 0.0 1011884
15:00+13s3479100 0.1 1010351
18:00+11ene349186 0.7 100899
21:00+11e51295100 0.9 1005274
3 october, mon
mon300:00+14ese51199100 4.4 1002384
03:00+15se61391100 4.9 1000538
06:00+15sse81691100 2.1 999707
09:00+15se101988100 3.9 9971009
12:00+14sse101988100 1.0 9971259
15:00+12ssw81282100 1.6 10001094
18:00+10ssw71184100 0.1 10041028
21:00+9ssw71185100 0.1 1006776
4 october, tue
tue400:00+9ssw71183100 0.1 10081155
03:00+7ssw6118480 0.1 1010448
06:00+7ssw5108843 0.0 1012366
09:00+9ssw69825 0.0 1014466
12:00+13ssw696513 0.0 10151194
15:00+13ssw796343 0.3 10151323
18:00+10s497750 0.1 1017239
21:00+9s4118684 0.1 1018271